Weather History for KMRT - May, 2013

Change the Weather History Date:

Wednesday, May 15, 2013

  Actual Average (KDLZ) Record (KDLZ)
Temperature  
Mean Temperature 75 °F -  
Max Temperature 86 °F 72 °F 94 °F (1962)
Min Temperature 64 °F 49 °F 35 °F (1973)
Cooling Degree Days 10    
Growing Degree Days 25 (Base 50)    
Moisture  
Dew Point 53 °F    
Average Humidity 48    
Maximum Humidity 68    
Minimum Humidity 26    
Precipitation  
Precipitation 0.00 in - - ()
Sea Level Pressure  
Sea Level Pressure 29.81 in    
Wind  
Wind Speed 14 mph (West)    
Max Wind Speed 26 mph    
Max Gust Speed 38 mph    
Visibility 10 miles    
Events      
Averages and records for this station are not official NWS values.
T = Trace of Precipitation, MM = Missing Value Source: NWS Daily Summary

Daily Weather History Graph

Daily Weather History Graph

Search for Another Location

Airport or City:

Trip Planner

Search our weather history database for the weather conditions in past years. The results will help you decide how hot, cold, wet, or windy it might be!

Date:

Astronomy

May. 15, 2013 Rise Set
Actual Time 6:17 AM EDT 8:42 PM EDT
Civil Twilight 5:46 AM EDT 9:13 PM EDT
Nautical Twilight 5:08 AM EDT 9:51 PM EDT
Astronomical Twilight 4:26 AM EDT 10:34 PM EDT
Moon 10:52 AM EDT (5/15) 12:28 AM EDT (5/15)
Length of Visible Light 15h 27m
Length of Day
14h 25m
Waxing Crescent, 26% of the Moon is Illuminated
May 15
Waxing Crescent
May 18
First Quarter
May 25
Full
May 31
Last Quarter
Jun 8
New

Hourly Weather History & Observations

Time (EDT) Temp. Heat Index Dew Point Humidity Pressure Visibility Wind Dir Wind Speed Gust Speed Precip Events Conditions
12:14 AM 64.6 °F - 53.6 °F 68% 29.83 in 10.0 mi SW 5.8 mph - N/A   Clear
12:33 AM 65.1 °F - 53.6 °F 66% 29.83 in 10.0 mi SSW 3.5 mph - N/A   Clear
12:54 AM 66.0 °F - 54.3 °F 66% 29.83 in 10.0 mi WSW 6.9 mph - N/A   Clear
1:14 AM 68.7 °F - 54.5 °F 60% 29.83 in 10.0 mi WSW 10.4 mph 16.1 mph N/A   Clear
1:33 AM 70.0 °F - 54.5 °F 58% 29.82 in 10.0 mi WSW 10.4 mph 18.4 mph N/A   Scattered Clouds
1:54 AM 69.8 °F - 54.7 °F 59% 29.82 in 10.0 mi West 11.5 mph 16.1 mph N/A   Scattered Clouds
2:14 AM 69.8 °F - 54.7 °F 59% 29.82 in 10.0 mi WSW 16.1 mph - N/A   Clear
2:33 AM 69.8 °F - 54.7 °F 59% 29.81 in 10.0 mi WSW 17.3 mph - N/A   Clear
2:54 AM 69.4 °F - 54.7 °F 59% 29.82 in 10.0 mi WSW 11.5 mph 18.4 mph N/A   Clear
3:14 AM 68.9 °F - 54.9 °F 61% 29.81 in 10.0 mi WSW 11.5 mph - N/A   Clear
3:33 AM 68.9 °F - 54.9 °F 61% 29.80 in 10.0 mi WSW 16.1 mph 20.7 mph N/A   Clear
3:54 AM 68.9 °F - 54.9 °F 61% 29.79 in 10.0 mi WSW 15.0 mph 23.0 mph N/A   Clear
4:14 AM 68.9 °F - 54.7 °F 60% 29.78 in 10.0 mi WSW 16.1 mph 21.9 mph N/A   Clear
4:34 AM 68.4 °F - 54.7 °F 62% 29.78 in 10.0 mi WSW 16.1 mph 20.7 mph N/A   Clear
4:54 AM 67.5 °F - 54.5 °F 63% 29.78 in 10.0 mi WSW 13.8 mph - N/A   Clear
5:14 AM 67.3 °F - 54.5 °F 63% 29.78 in 10.0 mi WSW 12.7 mph - N/A   Clear
5:34 AM 67.6 °F - 54.5 °F 63% 29.79 in 10.0 mi WSW 16.1 mph 21.9 mph N/A   Clear
5:54 AM 67.5 °F - 54.0 °F 62% 29.79 in 10.0 mi WSW 15.0 mph 21.9 mph N/A   Clear
6:14 AM 67.3 °F - 53.6 °F 61% 29.80 in 10.0 mi WSW 13.8 mph 19.6 mph N/A   Clear
6:34 AM 67.1 °F - 53.6 °F 62% 29.80 in 10.0 mi WSW 13.8 mph 18.4 mph N/A   Clear
6:53 AM 67.3 °F - 53.2 °F 61% 29.80 in 10.0 mi WSW 16.1 mph 21.9 mph N/A   Clear
7:14 AM 68.2 °F - 53.1 °F 58% 29.80 in 10.0 mi WSW 19.6 mph - N/A   Clear
7:34 AM 68.9 °F - 52.9 °F 57% 29.80 in 10.0 mi West 15.0 mph 21.9 mph N/A   Clear
7:53 AM 69.8 °F - 52.5 °F 54% 29.80 in 10.0 mi West 18.4 mph 26.5 mph N/A   Clear
8:14 AM 71.8 °F - 52.3 °F 50% 29.80 in 10.0 mi West 20.7 mph 26.5 mph N/A   Clear
8:33 AM 73.4 °F - 52.0 °F 47% 29.81 in 10.0 mi West 17.3 mph 26.5 mph N/A   Clear
8:54 AM 74.7 °F - 51.4 °F 44% 29.81 in 10.0 mi West 20.7 mph 28.8 mph N/A   Clear
9:14 AM 76.1 °F - 51.8 °F 43% 29.82 in 10.0 mi West 21.9 mph 29.9 mph N/A   Clear
9:33 AM 75.7 °F - 51.8 °F 43% 29.82 in 10.0 mi West 18.4 mph 31.1 mph N/A   Clear
9:54 AM 76.3 °F - 52.3 °F 43% 29.82 in 10.0 mi West 23.0 mph 31.1 mph N/A   Clear
10:14 AM 77.2 °F - 52.2 °F 42% 29.82 in 10.0 mi West 25.3 mph 38.0 mph N/A   Clear
10:33 AM 77.9 °F - 52.7 °F 41% 29.82 in 10.0 mi West 25.3 mph 32.2 mph N/A   Clear
10:54 AM 78.1 °F - 52.7 °F 41% 29.83 in 10.0 mi West 23.0 mph 38.0 mph N/A   Clear
11:14 AM 79.3 °F - 52.9 °F 40% 29.83 in 10.0 mi West 24.2 mph 31.1 mph N/A   Clear
11:33 AM 80.1 °F 79.9 °F 53.1 °F 39% 29.82 in 10.0 mi West 21.9 mph 29.9 mph N/A   Clear
11:54 AM 80.6 °F 80.3 °F 53.2 °F 39% 29.83 in 10.0 mi West 23.0 mph 34.5 mph N/A   Clear
12:13 PM 81.5 °F 80.8 °F 53.2 °F 38% 29.83 in 10.0 mi West 17.3 mph 33.4 mph N/A   Clear
12:34 PM 81.7 °F - 52.7 °F 37% 29.82 in 10.0 mi West 25.3 mph 29.9 mph N/A   Clear
12:53 PM 82.6 °F - 52.7 °F 35% 29.82 in 10.0 mi WSW 25.3 mph 33.4 mph N/A   Clear
1:14 PM 83.5 °F - 52.0 °F 34% 29.82 in 10.0 mi West 26.5 mph 34.5 mph N/A   Clear
1:33 PM 82.6 °F - 51.8 °F 34% 29.83 in 10.0 mi West 23.0 mph 32.2 mph N/A   Scattered Clouds
1:54 PM 81.9 °F - 52.3 °F 36% 29.82 in 10.0 mi West 21.9 mph 32.2 mph N/A   Scattered Clouds
2:13 PM 85.3 °F - 52.0 °F 32% 29.81 in 10.0 mi WSW 26.5 mph 35.7 mph N/A   Clear
2:34 PM 83.5 °F - 50.2 °F 31% 29.80 in 10.0 mi West 23.0 mph 35.7 mph N/A   Clear
2:54 PM 82.9 °F - 50.2 °F 32% 29.80 in 10.0 mi WSW 19.6 mph 28.8 mph N/A   Clear
3:13 PM 84.7 °F - 50.2 °F 30% 29.80 in 10.0 mi West 20.7 mph 27.6 mph N/A   Clear
3:34 PM 85.6 °F - 49.1 °F 28% 29.80 in 10.0 mi West 21.9 mph 29.9 mph N/A   Clear
3:54 PM 86.2 °F - 47.5 °F 26% 29.80 in 10.0 mi West 18.4 mph 27.6 mph N/A   Clear
4:13 PM 85.6 °F - 49.5 °F 29% 29.80 in 10.0 mi West 19.6 mph 23.0 mph N/A   Clear
4:34 PM 85.3 °F - 49.5 °F 29% 29.80 in 10.0 mi West 20.7 mph 29.9 mph N/A   Clear
4:54 PM 84.6 °F - 51.3 °F 32% 29.79 in 10.0 mi West 21.9 mph 27.6 mph N/A   Clear
5:13 PM 84.2 °F - 52.0 °F 33% 29.79 in 10.0 mi West 20.7 mph 27.6 mph N/A   Scattered Clouds
5:33 PM 84.9 °F - 51.8 °F 32% 29.78 in 10.0 mi West 17.3 mph 25.3 mph N/A   Scattered Clouds
5:54 PM 84.2 °F - 51.4 °F 32% 29.79 in 10.0 mi West 17.3 mph 25.3 mph N/A   Scattered Clouds
6:13 PM 83.8 °F - 51.8 °F 33% 29.79 in 10.0 mi WNW 15.0 mph 26.5 mph N/A   Scattered Clouds
6:33 PM 82.8 °F 81.6 °F 53.6 °F 36% 29.79 in 10.0 mi WNW 16.1 mph 23.0 mph N/A   Clear
6:54 PM 82.4 °F 81.3 °F 53.2 °F 36% 29.79 in 10.0 mi West 11.5 mph 18.4 mph N/A   Mostly Cloudy
7:13 PM 82.0 °F - 52.7 °F 36% 29.80 in 10.0 mi West 13.8 mph 20.7 mph N/A   Mostly Cloudy
7:33 PM 81.1 °F 80.6 °F 53.4 °F 38% 29.80 in 10.0 mi WNW 13.8 mph 20.7 mph N/A   Overcast
7:54 PM 80.8 °F 80.4 °F 54.0 °F 39% 29.80 in 10.0 mi WNW 9.2 mph - N/A   Overcast
8:14 PM 78.8 °F - 54.9 °F 44% 29.81 in 10.0 mi WNW 8.1 mph - N/A   Scattered Clouds
8:33 PM 76.5 °F - 55.9 °F 49% 29.82 in 10.0 mi WNW 4.6 mph - N/A   Mostly Cloudy
8:54 PM 74.8 °F - 56.3 °F 52% 29.82 in 10.0 mi West 4.6 mph - N/A   Scattered Clouds
9:14 PM 72.3 °F - 56.8 °F 58% 29.82 in 10.0 mi West 3.5 mph - N/A   Scattered Clouds
9:33 PM 72.1 °F - 55.9 °F 57% 29.82 in 10.0 mi WSW 4.6 mph - N/A   Scattered Clouds
9:54 PM 71.8 °F - 56.7 °F 59% 29.84 in 10.0 mi West 6.9 mph - N/A   Mostly Cloudy
10:14 PM 74.1 °F - 56.5 °F 54% 29.84 in 10.0 mi WSW 5.8 mph - N/A   Overcast
10:33 PM 74.5 °F - 56.3 °F 53% 29.84 in 10.0 mi WSW 8.1 mph - N/A   Mostly Cloudy
10:54 PM 73.8 °F - 56.7 °F 55% 29.84 in 10.0 mi WSW 8.1 mph - N/A   Mostly Cloudy
11:14 PM 73.9 °F - 56.8 °F 55% 29.83 in 10.0 mi WSW 9.2 mph - N/A   Mostly Cloudy
11:33 PM 73.4 °F - 57.2 °F 57% 29.82 in 10.0 mi WSW 11.5 mph - N/A   Mostly Cloudy
11:54 PM 70.7 °F - 58.3 °F 65% 29.82 in 10.0 mi WSW 6.9 mph - N/A   Mostly Cloudy